Time,TemperatureF,DewpointF,PressureIn,WindDirection,WindDirectionDegrees,WindSpeedMPH,WindSpeedGustMPH,Humidity,HourlyPrecipIn,Conditions,Clouds,dailyrainin,SoftwareType,DateUTC
2013-05-31 00:02:00,64.0,60.0,29.85,NNW,340,0.0,0.0,86,0.00,,,0.00,,2013-05-31 04:02:00,
2013-05-31 00:12:00,64.0,60.0,29.85,NNW,340,0.0,0.0,86,0.00,,,0.00,,2013-05-31 04:12:00,
2013-05-31 00:22:00,61.0,58.0,29.85,NNW,340,0.0,1.0,91,0.00,,,0.00,,2013-05-31 04:22:00,
2013-05-31 00:33:00,60.0,58.0,29.85,NNW,340,0.0,3.0,92,0.00,,,0.00,,2013-05-31 04:33:00,
2013-05-31 00:42:00,60.0,58.0,29.85,NNW,340,0.0,3.0,92,0.00,,,0.00,,2013-05-31 04:42:00,
2013-05-31 00:53:00,60.0,58.0,29.85,NNW,340,0.0,2.0,93,0.00,,,0.00,,2013-05-31 04:53:00,
2013-05-31 01:02:00,61.0,59.0,29.85,NNW,340,0.0,0.0,94,0.00,,,0.00,,2013-05-31 05:02:00,
2013-05-31 01:12:00,62.0,59.0,29.85,NNW,340,0.0,0.0,90,0.00,,,0.00,,2013-05-31 05:12:00,
2013-05-31 01:22:00,62.0,59.0,29.85,NNW,340,0.0,0.0,90,0.00,,,0.00,,2013-05-31 05:22:00,
2013-05-31 01:32:00,61.0,58.0,29.85,NNW,340,0.0,0.0,91,0.00,,,0.00,,2013-05-31 05:32:00,
2013-05-31 01:42:00,61.0,58.0,29.85,NNW,340,0.0,0.0,91,0.00,,,0.00,,2013-05-31 05:42:00,
2013-05-31 01:52:00,61.0,59.0,29.84,NNW,340,0.0,3.0,92,0.00,,,0.00,,2013-05-31 05:52:00,
2013-05-31 02:02:00,61.0,59.0,29.85,NNW,340,0.0,0.0,92,0.00,,,0.00,,2013-05-31 06:02:00,
2013-05-31 02:12:00,61.0,59.0,29.85,NNW,340,0.0,0.0,92,0.00,,,0.00,,2013-05-31 06:12:00,
2013-05-31 02:22:00,61.0,59.0,29.84,NNW,340,0.0,0.0,92,0.00,,,0.00,,2013-05-31 06:22:00,
2013-05-31 02:32:00,60.0,58.0,29.84,NNW,340,0.0,3.0,93,0.00,,,0.00,,2013-05-31 06:32:00,
2013-05-31 02:42:00,60.0,58.0,29.84,NNW,340,0.0,0.0,93,0.00,,,0.00,,2013-05-31 06:42:00,
2013-05-31 02:52:00,60.0,58.0,29.84,NNW,340,0.0,0.0,93,0.00,,,0.00,,2013-05-31 06:52:00,
2013-05-31 03:02:00,60.0,59.0,29.84,NNW,340,0.0,3.0,95,0.00,,,0.00,,2013-05-31 07:02:00,
2013-05-31 03:11:00,58.0,56.0,29.84,NNW,340,0.0,3.0,94,0.00,,,0.00,,2013-05-31 07:11:00,
2013-05-31 03:21:00,58.0,56.0,29.84,NNW,340,0.0,3.0,94,0.00,,,0.00,,2013-05-31 07:21:00,
2013-05-31 03:32:00,58.0,56.0,29.84,NNW,340,0.0,3.0,94,0.00,,,0.00,,2013-05-31 07:32:00,
2013-05-31 03:41:00,58.0,56.0,29.84,NNW,340,0.0,3.0,94,0.00,,,0.00,,2013-05-31 07:41:00,
2013-05-31 03:53:00,58.0,57.0,29.83,NNW,340,0.0,0.0,97,0.00,,,0.00,,2013-05-31 07:53:00,
2013-05-31 04:02:00,59.0,58.0,29.83,NNW,340,2.0,3.0,98,0.00,,,0.00,,2013-05-31 08:02:00,
2013-05-31 04:11:00,59.0,58.0,29.83,NNW,340,2.0,3.0,98,0.00,,,0.00,,2013-05-31 08:11:00,
2013-05-31 04:22:00,59.0,57.0,29.84,NNW,340,0.0,0.0,94,0.00,,,0.00,,2013-05-31 08:22:00,
2013-05-31 04:32:00,58.0,57.0,29.84,NNW,340,0.0,0.0,96,0.00,,,0.00,,2013-05-31 08:32:00,
2013-05-31 04:42:00,58.0,57.0,29.84,NNW,340,0.0,0.0,96,0.00,,,0.00,,2013-05-31 08:42:00,
2013-05-31 04:52:00,58.0,57.0,29.84,NNW,340,0.0,0.0,97,0.00,,,0.00,,2013-05-31 08:52:00,
2013-05-31 05:01:00,58.0,57.0,29.85,NNW,340,0.0,2.0,98,0.00,,,0.00,,2013-05-31 09:01:00,
2013-05-31 05:11:00,58.0,57.0,29.85,NNW,340,0.0,2.0,98,0.00,,,0.00,,2013-05-31 09:11:00,
2013-05-31 05:21:00,58.0,57.0,29.85,NNW,340,0.0,0.0,97,0.00,,,0.00,,2013-05-31 09:21:00,
2013-05-31 05:32:00,58.0,57.0,29.84,NNW,340,0.0,2.0,98,0.00,,,0.00,,2013-05-31 09:32:00,
2013-05-31 05:43:00,58.0,57.0,29.84,NNW,340,0.0,2.0,98,0.00,,,0.00,,2013-05-31 09:43:00,
2013-05-31 05:53:00,58.0,58.0,29.85,NNW,340,0.0,0.0,99,0.00,,,0.00,,2013-05-31 09:53:00,
2013-05-31 06:02:00,58.0,57.0,29.85,NNW,340,0.0,0.0,98,0.00,,,0.00,,2013-05-31 10:02:00,
2013-05-31 06:12:00,59.0,58.0,29.85,NNW,340,0.0,0.0,97,0.00,,,0.00,,2013-05-31 10:12:00,
2013-05-31 06:22:00,59.0,58.0,29.85,NNW,340,0.0,0.0,97,0.00,,,0.00,,2013-05-31 10:22:00,
2013-05-31 06:33:00,60.0,59.0,29.85,NNW,340,0.0,0.0,97,0.00,,,0.00,,2013-05-31 10:33:00,
2013-05-31 06:42:00,60.0,59.0,29.85,NNW,340,0.0,0.0,97,0.00,,,0.00,,2013-05-31 10:42:00,
2013-05-31 06:52:00,60.0,59.0,29.86,NNW,340,0.0,0.0,95,0.00,,,0.00,,2013-05-31 10:52:00,
2013-05-31 07:02:00,62.0,60.0,29.86,NNW,340,0.0,0.0,94,0.00,,,0.00,,2013-05-31 11:02:00,
2013-05-31 07:12:00,62.0,60.0,29.86,NNW,340,0.0,0.0,94,0.00,,,0.00,,2013-05-31 11:12:00,
2013-05-31 07:22:00,63.0,60.0,29.86,NNW,340,0.0,0.0,90,0.00,,,0.00,,2013-05-31 11:22:00,
2013-05-31 07:32:00,62.0,59.0,29.86,NNW,340,0.0,0.0,91,0.00,,,0.00,,2013-05-31 11:32:00,
2013-05-31 07:42:00,62.0,59.0,29.86,NNW,340,0.0,0.0,91,0.00,,,0.00,,2013-05-31 11:42:00,
2013-05-31 07:52:00,64.0,61.0,29.86,NNW,340,0.0,2.0,90,0.00,,,0.00,,2013-05-31 11:52:00,
2013-05-31 08:01:00,67.0,62.0,29.86,NNW,340,0.0,2.0,85,0.00,,,0.00,,2013-05-31 12:01:00,
2013-05-31 08:11:00,67.0,62.0,29.86,NNW,340,0.0,2.0,85,0.00,,,0.00,,2013-05-31 12:11:00,
2013-05-31 08:22:00,67.0,62.0,29.85,NNW,340,0.0,3.0,83,0.00,,,0.00,,2013-05-31 12:22:00,
2013-05-31 08:32:00,67.0,62.0,29.85,NNW,340,1.0,4.0,83,0.00,,,0.00,,2013-05-31 12:32:00,
2013-05-31 08:42:00,67.0,62.0,29.85,NNW,340,1.0,4.0,83,0.00,,,0.00,,2013-05-31 12:42:00,
2013-05-31 08:52:00,68.0,62.0,29.85,NNW,340,1.0,5.0,82,0.00,,,0.00,,2013-05-31 12:52:00,
2013-05-31 09:01:00,69.0,62.0,29.85,NNW,339,5.0,7.0,79,0.00,,,0.00,,2013-05-31 13:01:00,
2013-05-31 09:11:00,69.0,62.0,29.85,NNW,339,5.0,7.0,79,0.00,,,0.00,,2013-05-31 13:11:00,
2013-05-31 09:21:00,69.0,62.0,29.84,NW,319,5.0,10.0,78,0.00,,,0.00,,2013-05-31 13:21:00,
2013-05-31 09:32:00,70.0,62.0,29.84,NW,319,4.0,11.0,77,0.00,,,0.00,,2013-05-31 13:32:00,
2013-05-31 09:42:00,70.0,62.0,29.84,NW,319,4.0,11.0,77,0.00,,,0.00,,2013-05-31 13:42:00,
2013-05-31 09:52:00,70.0,62.0,29.83,NW,313,9.0,14.0,75,0.00,,,0.00,,2013-05-31 13:52:00,
2013-05-31 10:02:00,70.0,62.0,29.83,NNW,329,7.0,14.0,76,0.00,,,0.00,,2013-05-31 14:02:00,
2013-05-31 10:11:00,70.0,62.0,29.83,NNW,329,7.0,14.0,76,0.00,,,0.00,,2013-05-31 14:11:00,
2013-05-31 10:21:00,71.0,62.0,29.83,NNW,342,9.0,15.0,72,0.00,,,0.00,,2013-05-31 14:21:00,
2013-05-31 10:32:00,71.0,61.0,29.83,NW,315,9.0,14.0,71,0.00,,,0.00,,2013-05-31 14:32:00,
2013-05-31 10:42:00,71.0,61.0,29.83,NW,315,9.0,14.0,71,0.00,,,0.00,,2013-05-31 14:42:00,
2013-05-31 10:52:00,71.0,62.0,29.83,NW,314,8.0,18.0,73,0.00,,,0.00,,2013-05-31 14:52:00,
2013-05-31 11:01:00,72.0,63.0,29.83,NNW,341,8.0,18.0,74,0.00,,,0.00,,2013-05-31 15:01:00,
2013-05-31 11:11:00,72.0,63.0,29.83,NNW,341,8.0,18.0,74,0.00,,,0.00,,2013-05-31 15:11:00,
2013-05-31 11:21:00,73.0,64.0,29.83,NW,324,10.0,16.0,73,0.00,,,0.00,,2013-05-31 15:21:00,
2013-05-31 11:33:00,74.0,65.0,29.82,NNW,330,5.0,13.0,73,0.00,,,0.00,,2013-05-31 15:33:00,
2013-05-31 11:43:00,74.0,65.0,29.82,NNW,330,5.0,13.0,73,0.00,,,0.00,,2013-05-31 15:43:00,
2013-05-31 11:53:00,75.0,65.0,29.82,NW,323,6.0,13.0,71,0.00,,,0.00,,2013-05-31 15:53:00,
2013-05-31 12:03:00,76.0,65.0,29.81,NW,313,6.0,9.0,70,0.00,,,0.00,,2013-05-31 16:03:00,
2013-05-31 12:12:00,76.0,65.0,29.80,NNW,335,5.0,9.0,69,0.00,,,0.00,,2013-05-31 16:12:00,
2013-05-31 12:22:00,76.0,65.0,29.80,NNW,335,5.0,9.0,69,0.00,,,0.00,,2013-05-31 16:22:00,
2013-05-31 12:33:00,77.0,66.0,29.80,NW,305,8.0,14.0,68,0.00,,,0.00,,2013-05-31 16:33:00,
2013-05-31 12:42:00,77.0,66.0,29.80,NW,305,8.0,14.0,68,0.00,,,0.00,,2013-05-31 16:42:00,
2013-05-31 12:52:00,78.0,66.0,29.79,NW,318,6.0,13.0,66,0.00,,,0.00,,2013-05-31 16:52:00,
2013-05-31 13:02:00,78.0,65.0,29.78,NW,319,8.0,14.0,64,0.00,,,0.00,,2013-05-31 17:02:00,
2013-05-31 13:12:00,78.0,65.0,29.78,NW,319,8.0,14.0,64,0.00,,,0.00,,2013-05-31 17:12:00,
2013-05-31 13:22:00,76.0,63.0,29.78,NNW,327,10.0,21.0,65,0.00,,,0.00,,2013-05-31 17:22:00,
2013-05-31 13:32:00,76.0,63.0,29.78,NW,320,13.0,21.0,65,0.00,,,0.00,,2013-05-31 17:32:00,
2013-05-31 13:42:00,76.0,63.0,29.78,NW,320,13.0,21.0,65,0.00,,,0.00,,2013-05-31 17:42:00,
2013-05-31 13:52:00,75.0,63.0,29.77,NW,324,10.0,20.0,67,0.00,,,0.00,,2013-05-31 17:52:00,
2013-05-31 14:02:00,76.0,64.0,29.77,NW,318,10.0,18.0,67,0.00,,,0.00,,2013-05-31 18:02:00,
2013-05-31 14:12:00,76.0,64.0,29.77,NW,318,10.0,18.0,67,0.00,,,0.00,,2013-05-31 18:12:00,
2013-05-31 14:22:00,75.0,64.0,29.77,NW,316,9.0,16.0,68,0.00,,,0.00,,2013-05-31 18:22:00,
2013-05-31 14:32:00,74.0,62.0,29.76,NW,319,10.0,18.0,67,0.00,,,0.00,,2013-05-31 18:32:00,
2013-05-31 14:42:00,74.0,62.0,29.76,NW,319,10.0,18.0,67,0.00,,,0.00,,2013-05-31 18:42:00,
2013-05-31 14:52:00,74.0,62.0,29.76,NNW,328,9.0,19.0,67,0.00,,,0.00,,2013-05-31 18:52:00,
2013-05-31 15:02:00,71.0,62.0,29.76,North,349,10.0,20.0,72,0.00,,,0.00,,2013-05-31 19:02:00,
2013-05-31 15:11:00,71.0,62.0,29.76,North,349,10.0,20.0,72,0.00,,,0.00,,2013-05-31 19:11:00,
2013-05-31 15:22:00,71.0,62.0,29.75,NNW,331,10.0,19.0,73,0.00,,,0.00,,2013-05-31 19:22:00,
2013-05-31 15:32:00,72.0,63.0,29.75,NW,311,9.0,17.0,74,0.00,,,0.00,,2013-05-31 19:32:00,
2013-05-31 15:42:00,73.0,64.0,29.75,NW,323,9.0,15.0,74,0.00,,,0.00,,2013-05-31 19:42:00,
2013-05-31 15:52:00,73.0,64.0,29.75,NW,323,9.0,15.0,74,0.00,,,0.00,,2013-05-31 19:52:00,
2013-05-31 16:02:00,71.0,63.0,29.74,NNW,347,12.0,20.0,75,0.00,,,0.00,,2013-05-31 20:02:00,
2013-05-31 16:11:00,71.0,63.0,29.74,NNW,347,12.0,20.0,75,0.00,,,0.00,,2013-05-31 20:11:00,
2013-05-31 16:22:00,68.0,62.0,29.73,NW,320,11.0,23.0,80,0.00,,,0.00,,2013-05-31 20:22:00,
2013-05-31 16:32:00,72.0,64.0,29.72,NW,323,9.0,16.0,76,0.00,,,0.00,,2013-05-31 20:32:00,
2013-05-31 16:42:00,72.0,64.0,29.72,NW,323,9.0,16.0,76,0.00,,,0.00,,2013-05-31 20:42:00,
2013-05-31 16:52:00,69.0,61.0,29.72,NW,305,15.0,22.0,75,0.00,,,0.00,,2013-05-31 20:52:00,
2013-05-31 17:01:00,70.0,62.0,29.71,NW,311,10.0,22.0,77,0.00,,,0.00,,2013-05-31 21:01:00,
2013-05-31 17:11:00,70.0,62.0,29.71,NW,311,10.0,22.0,77,0.00,,,0.00,,2013-05-31 21:11:00,
2013-05-31 17:22:00,72.0,63.0,29.70,NW,323,12.0,21.0,73,0.00,,,0.00,,2013-05-31 21:22:00,
2013-05-31 17:32:00,70.0,62.0,29.70,North,353,9.0,20.0,76,0.00,,,0.00,,2013-05-31 21:32:00,
2013-05-31 17:42:00,70.0,62.0,29.70,NW,321,12.0,21.0,75,0.00,,,0.00,,2013-05-31 21:42:00,
2013-05-31 17:54:00,70.0,62.0,29.70,NW,321,12.0,21.0,75,0.00,,,0.00,,2013-05-31 21:54:00,
2013-05-31 18:02:00,69.0,61.0,29.70,NNW,330,11.0,20.0,75,0.00,,,0.00,,2013-05-31 22:02:00,
2013-05-31 18:12:00,69.0,61.0,29.70,NNW,330,11.0,20.0,75,0.00,,,0.00,,2013-05-31 22:12:00,
2013-05-31 18:22:00,69.0,61.0,29.70,NW,317,14.0,22.0,76,0.00,,,0.00,,2013-05-31 22:22:00,
2013-05-31 18:33:00,70.0,62.0,29.70,NW,307,11.0,21.0,76,0.00,,,0.00,,2013-05-31 22:33:00,
2013-05-31 18:42:00,71.0,62.0,29.70,NW,316,13.0,19.0,74,0.00,,,0.00,,2013-05-31 22:42:00,
2013-05-31 18:53:00,71.0,62.0,29.70,NW,316,13.0,19.0,74,0.00,,,0.00,,2013-05-31 22:53:00,
2013-05-31 19:02:00,70.0,62.0,29.71,NW,310,11.0,21.0,76,0.00,,,0.00,,2013-05-31 23:02:00,
2013-05-31 19:12:00,70.0,62.0,29.71,NW,310,11.0,21.0,76,0.00,,,0.00,,2013-05-31 23:12:00,
2013-05-31 19:21:00,71.0,63.0,29.71,NW,313,11.0,18.0,75,0.00,,,0.00,,2013-05-31 23:21:00,
2013-05-31 19:32:00,71.0,62.0,29.71,NW,309,6.0,15.0,74,0.00,,,0.00,,2013-05-31 23:32:00,
2013-05-31 19:42:00,73.0,64.0,29.71,WNW,290,3.0,7.0,73,0.00,,,0.00,,2013-05-31 23:42:00,
2013-05-31 19:52:00,73.0,64.0,29.71,WNW,290,3.0,7.0,73,0.00,,,0.00,,2013-05-31 23:52:00,
2013-05-31 20:01:00,73.0,63.0,29.71,NW,311,3.0,9.0,72,0.00,,,0.00,,2013-06-01 00:01:00,
2013-05-31 20:12:00,73.0,64.0,29.71,NW,316,6.0,10.0,73,0.00,,,0.00,,2013-06-01 00:12:00,
2013-05-31 20:22:00,73.0,64.0,29.71,NW,316,6.0,10.0,73,0.00,,,0.00,,2013-06-01 00:22:00,
2013-05-31 20:32:00,72.0,63.0,29.71,NW,311,4.0,10.0,74,0.00,,,0.00,,2013-06-01 00:32:00,
2013-05-31 20:42:00,72.0,63.0,29.72,NW,311,2.0,7.0,74,0.00,,,0.00,,2013-06-01 00:42:00,
2013-05-31 20:52:00,72.0,63.0,29.72,NW,311,2.0,7.0,74,0.00,,,0.00,,2013-06-01 00:52:00,
2013-05-31 21:01:00,73.0,64.0,29.72,NW,318,5.0,7.0,73,0.00,,,0.00,,2013-06-01 01:01:00,
2013-05-31 21:11:00,73.0,64.0,29.72,NW,316,3.0,6.0,74,0.00,,,0.00,,2013-06-01 01:11:00,
2013-05-31 21:22:00,73.0,64.0,29.72,NW,316,3.0,6.0,74,0.00,,,0.00,,2013-06-01 01:22:00,
2013-05-31 21:32:00,72.0,63.0,29.72,NW,316,5.0,6.0,74,0.00,,,0.00,,2013-06-01 01:32:00,
2013-05-31 21:42:00,72.0,64.0,29.72,NW,321,3.0,7.0,75,0.00,,,0.00,,2013-06-01 01:42:00,
2013-05-31 21:52:00,72.0,64.0,29.72,NW,321,3.0,7.0,75,0.00,,,0.00,,2013-06-01 01:52:00,
2013-05-31 22:01:00,72.0,64.0,29.72,NW,321,4.0,6.0,75,0.00,,,0.00,,2013-06-01 02:01:00,
2013-05-31 22:12:00,71.0,63.0,29.73,NW,321,0.0,0.0,76,0.00,,,0.00,,2013-06-01 02:12:00,
2013-05-31 22:21:00,71.0,63.0,29.73,NW,321,0.0,0.0,76,0.00,,,0.00,,2013-06-01 02:21:00,
2013-05-31 22:32:00,70.0,63.0,29.72,NW,321,0.0,2.0,78,0.00,,,0.00,,2013-06-01 02:32:00,
2013-05-31 22:42:00,70.0,63.0,29.72,NW,321,0.0,0.0,78,0.00,,,0.00,,2013-06-01 02:42:00,
2013-05-31 22:52:00,70.0,63.0,29.72,NW,321,0.0,0.0,78,0.00,,,0.00,,2013-06-01 02:52:00,
2013-05-31 23:02:00,69.0,63.0,29.72,NW,321,2.0,3.0,80,0.00,,,0.00,,2013-06-01 03:02:00,
2013-05-31 23:11:00,69.0,63.0,29.73,NW,321,0.0,4.0,81,0.00,,,0.00,,2013-06-01 03:11:00,
2013-05-31 23:21:00,69.0,63.0,29.73,NW,321,0.0,4.0,81,0.00,,,0.00,,2013-06-01 03:21:00,
2013-05-31 23:33:00,68.0,62.0,29.72,NW,321,0.0,2.0,82,0.00,,,0.00,,2013-06-01 03:33:00,
2013-05-31 23:43:00,67.0,62.0,29.72,NW,321,2.0,4.0,84,0.00,,,0.00,,2013-06-01 03:43:00,
2013-05-31 23:53:00,67.0,62.0,29.72,NW,321,2.0,4.0,84,0.00,,,0.00,,2013-06-01 03:53:00,